SL-24 DEB

Satellite information

Favourite Embed

Satellite Type and Status

DEBRISIN ORBIT

Key statistics

Satellite SL-24 DEB at a glance.

Uptime

7788

Days in orbit

Revolutions

≈ 14.1

Per day

Orbit

SSO

Sun Synchronous Orbit

Inclination

98.2

Latest

Satellite identification and parameters

Extended collection of information and parameters for SL-24 DEB.

Object identification

Identified? True

Debris? True

Object name: SL-24 DEB

International designator: 2004-025L

Object number (NORAD): 37586

Object ID (CCSDS): 37586

Country: COMMONWEALTH OF INDEPENDENT STATES (CIS)

Current information (Y/N): Y

RCS size: SMALL

Orbital parameters

Period: 102.243 minutes

Inclination: 98.1728 deg

SMA: 7242.956 km

Apoapsis: 1073.59 km

Periapsis: 656.053 km

RAAN: 334.2271 deg

Eccentricy: 0.02882367

Argument of periapsis: 338.0373 deg

Mean anomaly: 20.8646 deg

Mean motion: 14.0840953 rev/day

Mean motion (dot): 0.00003647 rev/day2

B* drag term: 0.0014689253 1/REarth

Two-line elements (TLE)

Creation date: Oct. 25, 2025, 3:11 a.m.

Reference frame: TEME

Reference center: EARTH

Epoch: Oct. 24, 2025, 1:26 p.m. UTC

TLE line 0: 0 SL-24 DEB

TLE line 1: 1 37586U 04025L 25297.56014956 .00003647 00000-0 14689-2 0 9991

TLE line 2: 2 37586 98.1728 334.2271 0288237 338.0373 20.8646 14.08409530773619

Live tracking on map

Real-time ground track for satellite SL-24 DEB.

In-orbit conjunctions

A list of the most updated potential collisions computed for object SL-24 DEB.

Target Orbit TCA Probability of collision Miss distance Type
NOAA 11 SSO 2025-06-13 01:58:13 0.0002450955 606.0 (m) PAYLOAD
ORBVIEW 1 (MICROLAB) LEO 2025-03-10 00:27:23 0.0004074589 103.0 (m) PAYLOAD
CZ-6A DEB LEO 2025-02-05 23:13:04 0.0003974624 113.0 (m) DEBRIS

Associated space launch

AprizeSat, is a constellation of small Low-Earth-Orbit satellites (64 satellites planned) to achieve a global communication system of data transmission and fixed and mobile asset tracking and monitoring (GMPCS).

SL-24 DEB was lifted into orbit during the mission ‘Dnepr | Aprizesat-2’, on board a Dnepr space rocket.

The launch took place on June 29, 2004, 6:30 a.m. from 109/95.

For more information about the launch, click the button.

Launch to space Dnepr | Aprizesat-2
Dnepr | Aprizesat-2

Agency: N/A

Status: Launch Successful

Launch date: June 29, 2004, 6:30 a.m. UTC

Rocket: Dnepr

Launch pad: 109/95

Location: Baikonur Cosmodrome, Republic of Kazakhstan

...

Latest news about this satellite

There are no fresh news available about this satellite. Check back as we update our databases every day.


Newsletter sign-up

Weekly statistics, charts and insights to help you stay on top of the space industry.